Weather in Sosnovets

Russia / Republic of Karelia     64°25′40″N   34°28′23″E
temp.,
°C
wind,
m/s
gust,
m/s
humid.,
%
clouds,
%
prec.,
mm/h
press.,
hPa
HPBL,
m
2 march, tue
tue200:00−1wnw6158164 0.0 996720
03:00−1wnw6148565 0.0 9971011
06:00−2nw7157995 0.2 997950
09:00−5nw6158354 0.2 1001684
12:00−4nw613820 0.0 1004854
15:00−3nw612800 0.0 10061010
18:00−5nw5148118 0.0 1008717
21:00−6wnw4128522 0.0 1008419
3 march, wed
wed300:00−6wnw3109163 0.0 1007312
03:00−6w4129265 0.0 1007364
06:00−5wnw4119174 0.0 1004428
09:00−6wnw4119184 0.0 1004458
12:00−4wnw489293 0.0 1003468
15:00−3wnw369396 0.1 1002456
18:00−6wnw229386 0.1 100032
21:00−7nnw229592 0.2 99948
4 march, thu
thu400:00−9n129787 0.0 99721
03:00−11nnw129783 0.0 99821
06:00−10nnw2296100 0.0 99835
09:00−9nnw2596100 0.0 999167
12:00−7n2494100 0.1 1000336
15:00−6nnw2493100 0.1 1001414
18:00−7wnw2397100 0.3 100182
21:00−11wnw359595 0.4 100190
5 march, fri
fri500:00−10wnw379590 0.1 1001214
03:00−10nw389595 0.2 1003327
06:00−13nne4993100 0.3 1005512
09:00−17nnw269789 0.3 1007141
12:00−13nnw269242 0.0 1009357
15:00−10nw248747 0.0 1010391
18:00−13w239119 0.0 101040
21:00−13w369552 0.0 1010129
6 march, sat
sat600:00−12wnw389293 0.0 1009187
03:00−13wnw389461 0.0 1009163
06:00−13w2695100 0.0 1007143
09:00−14w259575 0.0 1006131
12:00−10wsw249322 0.0 1005262
15:00−8wsw259241 0.0 1003356
18:00−12sw229570 0.0 100221
21:00−14ssw229765 0.0 100020